COSMOS 2251 DEB, 36371

Orbit data source: Space-Track

COSMOS 2251 DEB, 36371 is space debris in LEO originally from a launch on Wed, 16 Jun 1993 UTC launched from the Plesetsk Missile And Space Complex (PKMTR). The debris from Iridium 33, an American commercial communications satellite, has been tracked extensively since its accidental collision with the defunct Russian satellite Cosmos 2251 in 2009. This event, occurring at high speed in low Earth orbit (LEO), generated thousands of pieces of space debris, significantly increasing the risk of further collisions. The Iridium 33 debris cloud has impacted space traffic management and orbital debris mitigation strategies, making it a subject of ongoing study in space situational awareness.

Loading next visibility...
Identifier
36371, 1993-036AYY
Orbit
LEO
Country
Flag of CISCIS
Related business
Manufacturer
Unknown
Mission
Spacecraft
Bus & Motor
Unknown
Mass
Unknown
Launch date (UTC)
1993-06-16 (32 years ago)
Launch vehicle
Unknown
Launch site
Plesetsk Missile And Space Complex (PKMTR)
Object type
Payload
Rocket body
Debris
Shape & HBR
Unknown shape, 0.1 m
Radar Cross Section
Small (<0.1 m²)

Expand to show TLE details & history
Last TLE update: 21 hours ago

TLE from 21 hours ago
0 COSMOS 2251 DEB
1 36371U 93036AYY 25288.69848918  .00016485  00000-0  28253-2 0  9995
2 36371  74.0134 274.1601 0013865 320.3064  39.7090 14.68699081705926
Epoch: 2025-10-15T16:45Z
TLE epoch observation values (Epoch: 2025-10-15T16:45:49.465Z)
Latitude
-0.00002°
Longitude
-1.76484°
Altitude
660.365 km
Speed
7.531 km/s
True Right ascension
18h 16m 38s
True Declination
0° 00' 00"
Sunlit
Object was in daylight at epoch
Visualization orbit readout
Latitude
Unknown
Longitude
Unknown
Altitude
Unknown
Speed
Unknown
Apparent Right ascension
Unknown
Apparent Declination
Unknown
Sunlit
N/A
Visualization observer readout
Local Sidereal Time
08:55:30
Azimuth
Unknown
Elevation
Unknown
Doppler factor
Unknown
Orbital elements
Apogee altitude
672.576 km
Perigee altitude
653.052 km
Semi-major axis
7,040.951 km
Eccentricity
0.00139
Inclination
74.0134°
RAAN
274.1601°
Arg. of periapsis
320.3064°
True anomaly
39.81064°
Mean anomaly
39.709°
Eccentric anomaly
39.75981°
Mean motion
3.67364 °/min
Orbital period
98 mins
BSTAR
0.0028253

Documentation

Showing up to 5 results
|